Bat Cave, NC

2:08 AM EDT on October 01, 2016 (GMT -0400)
Asheville Regional

Weather History for KAVL - January, 2012

Change the Weather History Date:

Wednesday, January 11, 2012

  Actual Average Record
Temperature  
Mean Temperature 48 °F 37 °F  
Max Temperature 54 °F 47 °F 71 °F (1890)
Min Temperature 42 °F 27 °F -6 °F (1982)
Degree Days  
Heating Degree Days 17 28  
Month to date heating degree days 267 308  
Since 1 July heating degree days 1741 1969  
Cooling Degree Days 0 0  
Month to date cooling degree days 0 0  
Year to date cooling degree days 0 0  
Moisture  
Dew Point 47 °F    
Average Humidity 89    
Maximum Humidity 100    
Minimum Humidity 77    
Precipitation  
Precipitation 1.56 in 0.12 in 2.16 in (1908)
Month to date precipitation 1.84 1.24  
Year to date precipitation 1.84 1.24  
Snow  
Snow 0.00 in 0.10 in 7.00 in (1918)
Month to date snowfall T 1.3  
Since 1 July snowfall T 2.3  
Snow Depth 0.00 in    
Sea Level Pressure  
Sea Level Pressure 29.73 in    
Wind  
Wind Speed 6 mph (South)    
Max Wind Speed 16 mph    
Max Gust Speed 20 mph    
Visibility 6 miles    
Events Rain , Thunderstorm    
T = Trace of Precipitation, MM = Missing Value Source: NWS Daily Summary

Daily Weather History Graph

Daily Weather History Graph

Search for Another Location

Airport or City:

Trip Planner

Search our weather history database for the weather conditions in past years. The results will help you decide how hot, cold, wet, or windy it might be!

Date:

Astronomy

Jan. 11, 2012 Rise Set
Actual Time 7:39 AM EST 5:36 PM EST
Civil Twilight 7:11 AM EST 6:04 PM EST
Nautical Twilight 6:40 AM EST 6:35 PM EST
Astronomical Twilight 6:09 AM EST 7:06 PM EST
Moon 8:26 PM EST (1/11) 8:57 AM EST (1/11)
Length of Visible Light 10h 52m
Length of Day
9h 56m
Waning Gibbous, 93% of the Moon is Illuminated
Jan 11
Waning Gibbous
Jan 16
Last Quarter
Jan 23
New
Jan 30
First Quarter
Feb 7
Full

Hourly Weather History & Observations

Time (EST) Temp. Windchill Dew Point Humidity Pressure Visibility Wind Dir Wind Speed Gust Speed Precip Events Conditions
12:15 AM 48.2 °F - 46.4 °F 93% 29.94 in 1.8 mi SSE 4.6 mph - 0.01 in Rain Light Rain
12:19 AM 48.2 °F - 46.4 °F 93% 29.94 in 2.0 mi SSE 5.8 mph - 0.01 in Rain Light Rain
12:32 AM 48.2 °F - 46.4 °F 93% 29.94 in 4.0 mi South 4.6 mph - 0.01 in Rain Light Rain
12:40 AM 48.2 °F - 46.4 °F 93% 29.93 in 5.0 mi South 3.5 mph - 0.01 in   Overcast
12:47 AM 48.2 °F - 46.4 °F 93% 29.93 in 5.0 mi South 3.5 mph - 0.01 in   Overcast
12:54 AM 48.0 °F - 46.9 °F 96% 29.91 in 5.0 mi SSE 3.5 mph - 0.01 in   Overcast
1:11 AM 48.2 °F - 46.4 °F 93% 29.91 in 4.0 mi SSE 4.6 mph - N/A   Overcast
1:29 AM 48.2 °F - 46.4 °F 93% 29.91 in 2.5 mi South 5.8 mph - N/A   Overcast
1:54 AM 48.0 °F - 48.0 °F 100% 29.88 in 1.8 mi South 5.8 mph - 0.01 in Rain Light Rain
2:17 AM 48.2 °F - 46.4 °F 93% 29.90 in 3.0 mi SE 3.5 mph - 0.01 in Rain Light Rain
2:47 AM 48.2 °F - 46.4 °F 93% 29.88 in 2.5 mi South 3.5 mph - 0.02 in Rain Light Rain
2:54 AM 48.0 °F - 48.0 °F 100% 29.86 in 2.0 mi South 3.5 mph - 0.03 in Rain Rain
3:17 AM 48.2 °F - 48.2 °F 100% 29.87 in 1.8 mi Calm Calm - 0.05 in Rain Rain
3:36 AM 48.2 °F - 46.4 °F 93% 29.86 in 2.5 mi SSW 6.9 mph - 0.08 in Rain Light Rain
3:44 AM 48.2 °F - 46.4 °F 93% 29.86 in 4.0 mi South 8.1 mph - 0.09 in Rain Light Rain
3:54 AM 48.0 °F - 46.9 °F 96% 29.83 in 6.0 mi South 9.2 mph - 0.09 in Rain Light Rain
4:08 AM 48.2 °F - 46.4 °F 93% 29.85 in 7.0 mi South 9.2 mph - 0.00 in Rain Light Rain
4:54 AM 46.9 °F - 46.0 °F 97% 29.82 in 5.0 mi SSE 5.8 mph - 0.04 in Rain Light Rain
5:51 AM 46.4 °F - 46.4 °F 100% 29.82 in 4.0 mi Calm Calm - 0.05 in Rain Rain
5:54 AM 46.9 °F - 46.9 °F 100% 29.79 in 4.0 mi Variable 3.5 mph - 0.06 in Rain Rain
6:17 AM 48.2 °F - 46.4 °F 93% 29.81 in 10.0 mi Calm Calm - 0.01 in Rain Light Rain
6:38 AM 46.4 °F 45.2 °F 46.4 °F 100% 29.79 in 8.0 mi SSW 3.5 mph - 0.01 in Rain Light Rain
6:54 AM 48.0 °F - 46.0 °F 93% 29.78 in 6.0 mi SSW 8.1 mph - 0.02 in Rain Light Rain
7:25 AM 48.2 °F - 46.4 °F 93% 29.78 in 7.0 mi SSW 6.9 mph - 0.03 in Rain Light Rain
7:54 AM 48.0 °F - 46.9 °F 96% 29.74 in 10.0 mi SSE 4.6 mph - 0.07 in Rain Light Rain
8:09 AM 48.2 °F - 46.4 °F 93% 29.77 in 6.0 mi SSE 6.9 mph - 0.01 in Rain Light Rain
8:25 AM 48.2 °F - 46.4 °F 93% 29.77 in 9.0 mi South 10.4 mph - 0.01 in Rain Light Rain
8:51 AM 48.2 °F - 46.4 °F 93% 29.76 in 10.0 mi South 5.8 mph - 0.01 in Rain Light Rain
8:54 AM 48.0 °F - 46.9 °F 96% 29.74 in 10.0 mi South 5.8 mph - 0.01 in Rain Light Rain
9:17 AM 48.2 °F - 46.4 °F 93% 29.74 in 10.0 mi Calm Calm - N/A Rain Light Rain
9:24 AM 48.2 °F - 46.4 °F 93% 29.74 in 3.0 mi Calm Calm - 0.02 in Rain , Thunderstorm Thunderstorms and Rain
9:38 AM 48.2 °F - 46.4 °F 93% 29.76 in 3.0 mi WSW 9.2 mph - 0.06 in Rain , Thunderstorm Heavy Thunderstorms and Rain
9:44 AM 48.2 °F - 46.4 °F 93% 29.76 in 2.5 mi SW 4.6 mph - 0.11 in Rain Heavy Rain
9:54 AM 48.0 °F - 46.9 °F 96% 29.74 in 2.5 mi South 4.6 mph - 0.17 in Rain Heavy Rain
10:08 AM 48.2 °F - 46.4 °F 93% 29.75 in 1.8 mi WSW 11.5 mph - 0.09 in Rain Heavy Rain
10:11 AM 48.2 °F - 46.4 °F 93% 29.75 in 2.5 mi SW 9.2 mph - 0.09 in Rain Rain
10:21 AM 48.2 °F - 48.2 °F 100% 29.75 in 2.0 mi South 8.1 mph - 0.15 in Rain Heavy Rain
10:28 AM 48.2 °F - 46.4 °F 93% 29.74 in 2.5 mi SSW 8.1 mph - 0.18 in Rain Rain
10:50 AM 48.2 °F - 46.4 °F 93% 29.73 in 4.0 mi South 9.2 mph 18.4 mph 0.24 in Rain Light Rain
10:54 AM 48.0 °F - 46.9 °F 96% 29.70 in 5.0 mi South 9.2 mph - 0.24 in Rain Light Rain
11:14 AM 48.2 °F - 46.4 °F 93% 29.69 in 7.0 mi Calm Calm - 0.01 in Rain Light Rain
11:54 AM 48.9 °F - 46.9 °F 93% 29.62 in 5.0 mi WSW 4.6 mph - 0.07 in Rain Light Rain
1:11 PM 51.8 °F - 48.2 °F 88% 29.57 in 3.0 mi SSE 9.2 mph 18.4 mph 0.12 in Rain Light Rain
1:17 PM 50.0 °F - 48.2 °F 94% 29.57 in 4.0 mi SSE 9.2 mph - 0.13 in Rain Light Rain
1:32 PM 50.0 °F - 48.2 °F 94% 29.57 in 2.0 mi SSE 8.1 mph - 0.23 in Rain Heavy Rain
1:39 PM 50.0 °F - 48.2 °F 94% 29.57 in 1.2 mi SSE 5.8 mph - 0.32 in Rain Heavy Rain
1:47 PM 50.0 °F - 48.2 °F 94% 29.57 in 2.0 mi SSE 10.4 mph - 0.41 in Rain Light Rain
1:54 PM 50.0 °F - 48.9 °F 96% 29.54 in 9.0 mi South 10.4 mph - 0.42 in Rain Light Rain
2:02 PM 50.0 °F - 48.2 °F 94% 29.56 in 10.0 mi South 9.2 mph - 0.00 in Rain Light Rain
2:40 PM 53.6 °F - 51.8 °F 94% 29.52 in 10.0 mi ESE 9.2 mph - 0.00 in   Scattered Clouds
2:54 PM 54.0 °F - 51.1 °F 90% 29.49 in 10.0 mi SE 8.1 mph 16.1 mph 0.00 in   Partly Cloudy
3:03 PM 53.6 °F - 51.8 °F 94% 29.51 in 10.0 mi SE 9.2 mph - N/A   Scattered Clouds
4:05 PM 53.6 °F - 51.8 °F 94% 29.50 in 1.8 mi SSE 10.4 mph 17.3 mph 0.08 in Rain Heavy Rain
4:54 PM 53.1 °F - 48.0 °F 83% 29.48 in 10.0 mi SSW 8.1 mph - 0.24 in   Mostly Cloudy
5:54 PM 51.1 °F - 44.1 °F 77% 29.51 in 10.0 mi SSW 8.1 mph - N/A   Mostly Cloudy
6:54 PM 48.2 °F - 44.6 °F 87% 29.55 in 10.0 mi SSW 10.4 mph 19.6 mph N/A Rain Light Rain
7:54 PM 46.9 °F - 44.1 °F 90% 29.54 in 10.0 mi SSW 8.1 mph - 0.00 in   Scattered Clouds
8:54 PM 46.4 °F 43.5 °F 42.8 °F 87% 29.57 in 10.0 mi SW 5.8 mph - N/A   Clear
9:54 PM 45.0 °F - 43.0 °F 93% 29.56 in 10.0 mi Calm Calm - N/A   Mostly Cloudy
10:54 PM 43.0 °F 40.3 °F 41.0 °F 93% 29.57 in 10.0 mi SSE 4.6 mph - N/A   Scattered Clouds
11:54 PM 42.1 °F - 39.9 °F 92% 29.56 in 10.0 mi Calm Calm - N/A   Clear